DCBCT EDLI-EDBH

Flight info

Callsign DCBCT
Flight time 0h 35m
Altitude 23000
Route ROBEG/N0426F230 IFR L980 HLZ P12 BKD/N0431F240 M726 ROSOK Q800 GASBO/N0150VFR VFR
Aircraft C25C/M-SDE2E3FGHRWXY/LB1

Departure

Time 2026-05-04 17:53
Airport Bielefeld Airport (EDLI)

Arrival

Time 2026-05-04 18:28
Airport Stralsund-Barth Airport (EDBH)
Time Latitude Longitude Altitude Speed Heading
2026-05-04 17:44 51.96539 8.54968 455 ft 0 kts 252°
2026-05-04 17:49 51.96541 8.54951 455 ft 6 kts 281°
2026-05-04 17:49 51.96508 8.54924 455 ft 10 kts 148°
2026-05-04 17:49 51.96417 8.55024 455 ft 19 kts 165°
2026-05-04 17:50 51.96342 8.55087 457 ft 10 kts 117°
2026-05-04 17:50 51.96317 8.55176 457 ft 7 kts 115°
2026-05-04 17:50 51.96289 8.55227 456 ft 4 kts 95°
2026-05-04 17:50 51.96295 8.55239 456 ft 0 kts 17°
2026-05-04 17:51 51.96301 8.55238 457 ft 1 kts 341°
2026-05-04 17:51 51.96307 8.55221 457 ft 0 kts 292°
2026-05-04 17:51 51.96308 8.55220 457 ft 0 kts 292°
2026-05-04 17:52 51.96317 8.55179 457 ft 29 kts 290°
2026-05-04 17:52 51.96514 8.54310 463 ft 131 kts 291°
2026-05-04 17:52 51.96959 8.52659 948 ft 183 kts 299°
2026-05-04 17:53 51.97908 8.51062 1936 ft 217 kts 332°
2026-05-04 17:53 51.99466 8.50651 3144 ft 244 kts
2026-05-04 17:53 51.99974 8.50865 3572 ft 248 kts 21°
2026-05-04 17:53 52.00806 8.51676 4329 ft 252 kts 39°
2026-05-04 17:54 52.01857 8.54028 5297 ft 263 kts 64°
2026-05-04 17:54 52.02670 8.56703 6372 ft 267 kts 63°
2026-05-04 17:54 52.03497 8.59442 7372 ft 272 kts 66°
2026-05-04 17:54 52.04293 8.62241 8395 ft 276 kts 65°
2026-05-04 17:55 52.05143 8.65039 9410 ft 281 kts 65°
2026-05-04 17:55 52.05991 8.67905 10365 ft 285 kts 65°
2026-05-04 17:55 52.06869 8.70818 11299 ft 290 kts 65°
2026-05-04 17:55 52.07747 8.73815 12254 ft 294 kts 64°
2026-05-04 17:56 52.08649 8.76823 13192 ft 298 kts 64°
2026-05-04 17:56 52.09542 8.79854 14082 ft 303 kts 64°
2026-05-04 17:56 52.10481 8.83005 14882 ft 308 kts 65°
2026-05-04 17:56 52.11385 8.86085 15630 ft 313 kts 64°
2026-05-04 17:57 52.12325 8.89260 16363 ft 319 kts 65°
2026-05-04 17:57 52.13293 8.92555 17099 ft 327 kts 65°
2026-05-04 17:57 52.14324 8.96022 17246 ft 353 kts 65°
2026-05-04 17:57 52.15020 8.98006 17248 ft 369 kts 54°
2026-05-04 17:58 52.16926 9.00981 17550 ft 384 kts 39°
2026-05-04 17:58 52.18904 9.03686 18275 ft 386 kts 40°
2026-05-04 17:59 52.20620 9.06167 18780 ft 390 kts 41°
2026-05-04 17:59 52.22484 9.08857 19324 ft 394 kts 40°
2026-05-04 17:59 52.26170 9.14028 19848 ft 417 kts 40°
2026-05-04 18:00 52.28349 9.17098 20481 ft 420 kts 40°
2026-05-04 18:00 52.30594 9.20303 21042 ft 425 kts 40°
2026-05-04 18:00 52.32790 9.23415 21553 ft 429 kts 40°
2026-05-04 18:00 52.35056 9.26640 22083 ft 434 kts 40°
2026-05-04 18:01 52.37349 9.29889 22607 ft 438 kts 40°
2026-05-04 18:01 52.38676 9.31787 22856 ft 442 kts 41°
2026-05-04 18:01 52.41025 9.35145 22947 ft 453 kts 40°
2026-05-04 18:02 52.44127 9.39576 22940 ft 462 kts 40°
2026-05-04 18:02 52.46525 9.43006 22945 ft 453 kts 40°
2026-05-04 18:02 52.48880 9.46381 22944 ft 446 kts 40°
2026-05-04 18:02 52.51200 9.49716 22941 ft 442 kts 40°
2026-05-04 18:03 52.53505 9.53022 22937 ft 438 kts 40°
2026-05-04 18:03 52.55793 9.56323 22937 ft 435 kts 40°
2026-05-04 18:03 52.58068 9.59593 22954 ft 433 kts 40°
2026-05-04 18:03 52.60329 9.62871 22952 ft 432 kts 40°
2026-05-04 18:04 52.62559 9.66083 22968 ft 430 kts 40°
2026-05-04 18:04 52.64829 9.69380 22966 ft 431 kts 40°
2026-05-04 18:04 52.69408 9.76015 22953 ft 445 kts 40°
2026-05-04 18:05 52.71746 9.79412 22954 ft 451 kts 40°
2026-05-04 18:05 52.74076 9.82925 22961 ft 456 kts 42°
2026-05-04 18:05 52.76367 9.86486 22958 ft 460 kts 42°
2026-05-04 18:05 52.78728 9.90070 22951 ft 459 kts 41°
2026-05-04 18:06 52.83398 9.97130 22966 ft 451 kts 41°
2026-05-04 18:06 52.85689 10.00647 22947 ft 448 kts 41°
2026-05-04 18:06 52.87972 10.04124 22943 ft 445 kts 41°
2026-05-04 18:07 52.90244 10.07604 22940 ft 443 kts 41°
2026-05-04 18:07 52.92504 10.11051 22938 ft 441 kts 41°
2026-05-04 18:07 52.94750 10.14508 22936 ft 439 kts 41°
2026-05-04 18:07 52.96994 10.17949 22926 ft 439 kts 41°
2026-05-04 18:08 52.99230 10.21383 22930 ft 438 kts 41°
2026-05-04 18:08 53.01462 10.24837 22930 ft 441 kts 41°
2026-05-04 18:08 53.03721 10.28317 22933 ft 447 kts 41°
2026-05-04 18:08 53.06029 10.31864 22948 ft 453 kts 41°
2026-05-04 18:09 53.10687 10.39092 22963 ft 462 kts 41°
2026-05-04 18:09 53.15340 10.46308 22962 ft 457 kts 41°
2026-05-04 18:10 53.17687 10.49948 22960 ft 454 kts 42°
2026-05-04 18:10 53.19980 10.53554 22960 ft 452 kts 41°
2026-05-04 18:10 53.22273 10.57130 22959 ft 450 kts 41°
2026-05-04 18:10 53.24529 10.60660 22956 ft 449 kts 41°
2026-05-04 18:11 53.26809 10.64219 22973 ft 448 kts 42°
2026-05-04 18:11 53.29079 10.67790 22963 ft 447 kts 42°
2026-05-04 18:11 53.31346 10.71350 22964 ft 447 kts 42°
2026-05-04 18:11 53.33608 10.74913 22961 ft 446 kts 41°
2026-05-04 18:12 53.35867 10.78467 22962 ft 445 kts 42°
2026-05-04 18:12 53.38117 10.82025 22961 ft 445 kts 42°
2026-05-04 18:12 53.40371 10.85586 22960 ft 444 kts 42°
2026-05-04 18:12 53.42614 10.89138 22951 ft 444 kts 41°
2026-05-04 18:13 53.44864 10.92698 22952 ft 445 kts 41°
2026-05-04 18:13 53.47111 10.96278 22951 ft 445 kts 41°
2026-05-04 18:13 53.51599 11.03420 22964 ft 445 kts 41°
2026-05-04 18:14 53.53841 11.06993 22967 ft 445 kts 42°
2026-05-04 18:14 53.56092 11.10596 22967 ft 445 kts 42°
2026-05-04 18:14 53.58330 11.14171 22967 ft 445 kts 42°
2026-05-04 18:15 53.62723 11.21216 22802 ft 449 kts 42°
2026-05-04 18:15 53.67215 11.28452 21813 ft 445 kts 42°
2026-05-04 18:15 53.69435 11.32038 21041 ft 437 kts 41°
2026-05-04 18:16 53.71617 11.35554 20221 ft 432 kts 41°
2026-05-04 18:16 53.73768 11.39038 19443 ft 426 kts 41°
2026-05-04 18:16 53.75902 11.42485 18702 ft 421 kts 41°
2026-05-04 18:17 53.80041 11.49215 17607 ft 402 kts 41°
2026-05-04 18:17 53.82035 11.52464 17079 ft 393 kts 41°
2026-05-04 18:17 53.85905 11.58779 16093 ft 380 kts 41°
2026-05-04 18:18 53.87798 11.61851 15601 ft 375 kts 41°
2026-05-04 18:18 53.89663 11.64915 15113 ft 372 kts 41°
2026-05-04 18:18 53.91536 11.67972 14620 ft 376 kts 41°
2026-05-04 18:18 53.93422 11.71077 14132 ft 379 kts 41°
2026-05-04 18:19 53.97215 11.77309 13087 ft 383 kts 41°
2026-05-04 18:19 53.99128 11.80446 12582 ft 383 kts 42°
2026-05-04 18:19 54.01036 11.83608 12078 ft 383 kts 42°
2026-05-04 18:20 54.02947 11.86750 11572 ft 380 kts 42°
2026-05-04 18:20 54.04802 11.89832 11076 ft 365 kts 42°
2026-05-04 18:20 54.06595 11.92792 10606 ft 353 kts 42°
2026-05-04 18:20 54.08332 11.95678 10146 ft 345 kts 43°
2026-05-04 18:21 54.10032 11.98485 9675 ft 337 kts 42°
2026-05-04 18:21 54.11691 12.01247 9228 ft 331 kts 43°
2026-05-04 18:21 54.13171 12.04196 8898 ft 324 kts 54°
2026-05-04 18:21 54.14365 12.07434 8532 ft 319 kts 57°
2026-05-04 18:22 54.15522 12.10641 8101 ft 316 kts 56°
2026-05-04 18:22 54.16761 12.13695 7665 ft 308 kts 51°
2026-05-04 18:22 54.17997 12.16594 7245 ft 296 kts 53°
2026-05-04 18:22 54.19152 12.19426 6842 ft 286 kts 53°
2026-05-04 18:23 54.20272 12.22170 6456 ft 278 kts 53°
2026-05-04 18:23 54.21338 12.24813 6065 ft 272 kts 52°
2026-05-04 18:23 54.22412 12.27433 5687 ft 266 kts 53°
2026-05-04 18:23 54.23462 12.30032 5310 ft 267 kts 52°
2026-05-04 18:24 54.24535 12.32645 4945 ft 270 kts 53°
2026-05-04 18:24 54.25587 12.35270 4567 ft 272 kts 53°
2026-05-04 18:24 54.26688 12.37953 4181 ft 273 kts 53°
2026-05-04 18:24 54.27760 12.40635 3801 ft 273 kts 53°
2026-05-04 18:25 54.28837 12.43268 3427 ft 274 kts 52°
2026-05-04 18:25 54.29916 12.45956 3045 ft 274 kts 54°
2026-05-04 18:25 54.31003 12.48642 2653 ft 274 kts 53°
2026-05-04 18:25 54.32083 12.51331 2284 ft 273 kts 53°
2026-05-04 18:26 54.33159 12.53994 1923 ft 271 kts 53°
2026-05-04 18:26 54.33919 12.56903 1547 ft 268 kts 81°
2026-05-04 18:26 54.33912 12.60004 1095 ft 248 kts 90°
2026-05-04 18:26 54.33894 12.62691 729 ft 222 kts 90°
2026-05-04 18:27 54.33842 12.65199 464 ft 199 kts 90°
2026-05-04 18:27 54.33832 12.67407 207 ft 169 kts 89°
2026-05-04 18:27 54.33826 12.69131 46 ft 128 kts 89°
2026-05-04 18:27 54.33821 12.70483 9 ft 90 kts 91°
2026-05-04 18:28 54.33818 12.71055 15 ft 25 kts 90°
2026-05-04 18:28 54.33817 12.71349 15 ft 24 kts 92°
2026-05-04 18:28 54.33704 12.71419 18 ft 17 kts 174°
2026-05-04 18:28 54.33667 12.71556 19 ft 12 kts 91°
2026-05-04 18:29 54.33648 12.71589 20 ft 0 kts 275°